STARLINK-11270, 60999

Orbit data source: Space-Track

STARLINK-11270, 60999 is a payload satellite owned by SpaceX/Seattle (US) in LEO that was launched on Thu, 05 Sep 2024 UTC via an FALCON 9 launch vehicle from the Air Force Eastern Test Range (AFETR). Payload-class satellites include a variety of spacecraft equipped with specific instruments for various scientific and technological missions. These include communications satellites like Starlink; space stations such as the ISS; scientific satellites like the Hubble; Earth observation satellites from companies like Planet Labs, Umbra, and HawkEye 360; GPS; miniature CubeSats for education and research; and military/defense satellites.

Loading next visibility...
Identifier
60999, 2024-158K
Orbit
LEO
Country
Flag of USUS
Related business
Manufacturer
SpaceX/Seattle
Mission
Operational Commercial Communications
Bus & Motor
STARLINK V2MD, Unknown motor
Mass
960 kg wet, ~910 kg dry
Launch date (UTC)
2024-09-05 (1 year ago)
Launch vehicle
FALCON 9
Launch site
Air Force Eastern Test Range (AFETR)
Object type
Payload
Rocket body
Debris
Shape & HBR
Box + 2 Pan, 14.5 m
Radar Cross Section
36.964 m², Large (>1 m²)

Expand to show TLE details & history
Last TLE update: 14 hours ago

TLE from 14 hours ago
0 STARLINK-11270
1 60999U 24158K   25260.70005826 -.00002545  00000-0 -16146-4 0  9996
2 60999  53.1595  54.1156 0000931  95.5759 264.5365 15.69721887 60414
Epoch: 2025-09-17T16:48Z
TLE epoch observation values (Epoch: 2025-09-17T16:48:05.033Z)
Latitude
-0.00004°
Longitude
165.22235°
Altitude
360.668 km
Speed
7.694 km/s
True Right ascension
03h 36m 27s
True Declination
0° 00' 00"
Sunlit
Object was in full shadow at epoch
Visualization orbit readout
Latitude
Unknown
Longitude
Unknown
Altitude
Unknown
Speed
Unknown
Apparent Right ascension
Unknown
Apparent Declination
Unknown
Sunlit
N/A
Visualization observer readout
Local Sidereal Time
23:24:00
Azimuth
Unknown
Elevation
Unknown
Doppler factor
Unknown
Orbital elements
Apogee altitude
360.581 km
Perigee altitude
359.326 km
Semi-major axis
6,738.091 km
Eccentricity
0.00009
Inclination
53.1595°
RAAN
54.1156°
Arg. of periapsis
95.5759°
True anomaly
264.52588°
Mean anomaly
264.5365°
Eccentric anomaly
264.53119°
Mean motion
3.92408 °/min
Orbital period
91.74 mins
BSTAR
-0.000016146
Loading maneuver chart data...
Computing Atmospheric mass density...
Loading historical data...
Loading historical data...
Loading historical data...
Loading historical data...
Loading historical data...
Loading historical data...
Loading historical data...

Documentation

Showing up to 5 results
|